Weather History for Ludington, MI

Change the Weather History Date:

Friday, August 2, 2013

  Actual Average Record
Temperature  
Mean Temperature 66 °F -  
Max Temperature 74 °F 79 °F 99 °F (1988)
Min Temperature 57 °F 59 °F 45 °F (1965)
Growing Degree Days 16 (Base 50)    
Moisture  
Dew Point 61 °F    
Average Humidity 80    
Maximum Humidity 90    
Minimum Humidity 68    
Precipitation  
Precipitation 0.00 in - - ()
Sea Level Pressure  
Sea Level Pressure 29.87 in    
Wind  
Wind Speed 6 mph (SW)    
Max Wind Speed 17 mph    
Max Gust Speed 23 mph    
Visibility 10 miles    
Events      
Averages and records for this station are not official NWS values.
T = Trace of Precipitation, MM = Missing Value Source: NWS Daily Summary

Daily Weather History Graph

Daily Weather History Graph

Search for Another Location

Airport:

Trip Planner

Search our weather history database for the weather conditions in past years. The results will help you decide how hot, cold, wet, or windy it might be!

Date:

Astronomy

Aug. 02, 2013 Rise Set
Actual Time 6:35 AM EDT 9:07 PM EDT
Civil Twilight 6:02 AM EDT 9:40 PM EDT
Nautical Twilight 5:21 AM EDT 10:21 PM EDT
Astronomical Twilight 4:34 AM EDT 11:07 PM EDT
Moon 2:54 AM EDT (8/2) 6:06 PM EDT (8/2)
Length of Visible Light 15h 37m
Length of Day
14h 32m
Waning Crescent, 16% of the Moon is Illuminated
Aug 2
Waning Crescent
Aug 6
New
Aug 14
First Quarter
Aug 20
Full
Aug 28
Last Quarter

Hourly Weather History & Observations

Time (EDT) Temp. Dew Point Humidity Pressure Visibility Wind Dir Wind Speed Gust Speed Precip Events Conditions
12:15 AM 65.3 °F 58.1 °F 77% 29.91 in 10.0 mi South 4.6 mph - N/A   Scattered Clouds
12:35 AM 64.6 °F 58.5 °F 80% 29.90 in 10.0 mi South 3.5 mph - N/A   Scattered Clouds
12:55 AM 65.1 °F 59.2 °F 81% 29.90 in 10.0 mi South 4.6 mph - N/A   Scattered Clouds
1:15 AM 63.7 °F 59.0 °F 85% 29.90 in 10.0 mi SW 5.8 mph - N/A   Scattered Clouds
1:35 AM 65.3 °F 60.1 °F 83% 29.89 in 10.0 mi SW 5.8 mph - N/A   Clear
1:55 AM 65.3 °F 60.1 °F 83% 29.88 in 10.0 mi WSW 3.5 mph - N/A   Clear
2:16 AM 64.9 °F 59.9 °F 84% 29.88 in 10.0 mi SW 3.5 mph - N/A   Clear
2:35 AM 63.5 °F 58.5 °F 84% 29.87 in 10.0 mi SW 4.6 mph - N/A   Clear
2:55 AM 63.5 °F 58.5 °F 84% 29.86 in 10.0 mi SW 4.6 mph - N/A   Clear
3:15 AM 63.9 °F 58.3 °F 82% 29.86 in 10.0 mi WSW 3.5 mph - N/A   Clear
3:35 AM 63.5 °F 58.1 °F 83% 29.86 in 10.0 mi Calm Calm - N/A   Clear
3:55 AM 59.4 °F 56.3 °F 90% 29.86 in 10.0 mi Calm Calm - N/A   Clear
4:15 AM 60.3 °F 56.8 °F 88% 29.86 in 10.0 mi SSW 4.6 mph - N/A   Clear
4:35 AM 62.8 °F 58.1 °F 85% 29.86 in 10.0 mi SSW 3.5 mph - N/A   Clear
4:55 AM 61.7 °F 57.4 °F 86% 29.87 in 10.0 mi Calm Calm - N/A   Clear
5:15 AM 58.3 °F 55.0 °F 89% 29.86 in 10.0 mi Calm Calm - N/A   Clear
5:35 AM 60.3 °F 57.2 °F 90% 29.86 in 10.0 mi Calm Calm - N/A   Clear
5:55 AM 58.3 °F 55.2 °F 90% 29.86 in 10.0 mi East 3.5 mph - N/A   Clear
6:15 AM 57.4 °F 54.5 °F 90% 29.87 in 10.0 mi Calm Calm - N/A   Scattered Clouds
6:35 AM 65.1 °F 60.6 °F 85% 29.87 in 10.0 mi WSW 11.5 mph - N/A   Overcast
6:55 AM 65.3 °F 60.3 °F 84% 29.86 in 10.0 mi SW 9.2 mph - N/A   Mostly Cloudy
7:16 AM 65.3 °F 59.9 °F 83% 29.86 in 10.0 mi WSW 8.1 mph - N/A   Overcast
7:35 AM 65.3 °F 59.9 °F 83% 29.86 in 10.0 mi WSW 6.9 mph - N/A   Overcast
7:55 AM 66.2 °F 60.8 °F 83% 29.87 in 10.0 mi WSW 9.2 mph - N/A   Overcast
8:15 AM 67.1 °F 61.5 °F 82% 29.86 in 10.0 mi SW 6.9 mph - N/A   Overcast
8:35 AM 65.3 °F 60.1 °F 83% 29.86 in 10.0 mi SW 9.2 mph - N/A   Mostly Cloudy
8:55 AM 65.3 °F 60.1 °F 83% 29.87 in 10.0 mi SW 11.5 mph - N/A   Scattered Clouds
9:15 AM 68.0 °F 62.1 °F 81% 29.87 in 10.0 mi SW 10.4 mph 17.3 mph N/A   Clear
9:36 AM 68.0 °F 61.9 °F 81% 29.86 in 10.0 mi SSW 15.0 mph - N/A   Scattered Clouds
9:55 AM 70.3 °F 61.9 °F 74% 29.86 in 10.0 mi SSW 10.4 mph 17.3 mph N/A   Clear
10:15 AM 70.3 °F 60.3 °F 70% 29.86 in 10.0 mi SW 13.8 mph 18.4 mph N/A   Mostly Cloudy
10:36 AM 70.3 °F 61.9 °F 74% 29.86 in 10.0 mi SW 17.3 mph 23.0 mph N/A   Scattered Clouds
10:55 AM 70.3 °F 62.4 °F 76% 29.86 in 10.0 mi SW 10.4 mph 23.0 mph N/A   Clear
11:15 AM 70.3 °F 63.3 °F 78% 29.86 in 10.0 mi SW 13.8 mph 20.7 mph N/A   Mostly Cloudy
11:35 AM 70.3 °F 64.4 °F 81% 29.86 in 10.0 mi SW 11.5 mph 18.4 mph N/A   Overcast
11:55 AM 70.3 °F 64.2 °F 81% 29.87 in 10.0 mi SSW 12.7 mph 17.3 mph N/A   Overcast
12:16 PM 70.3 °F 63.5 °F 79% 29.86 in 10.0 mi SW 16.1 mph 19.6 mph N/A   Overcast
12:35 PM 71.2 °F 63.7 °F 77% 29.86 in 10.0 mi SW 15.0 mph - N/A   Overcast
12:55 PM 70.3 °F 63.1 °F 78% 29.85 in 10.0 mi SW 13.8 mph 18.4 mph N/A   Mostly Cloudy
1:15 PM 70.3 °F 63.5 °F 79% 29.85 in 10.0 mi SW 13.8 mph - N/A   Mostly Cloudy
1:35 PM 70.3 °F 63.1 °F 78% 29.85 in 10.0 mi SW 13.8 mph - N/A   Scattered Clouds
1:55 PM 70.3 °F 62.8 °F 77% 29.85 in 10.0 mi WSW 11.5 mph 18.4 mph N/A   Scattered Clouds
2:15 PM 71.1 °F 63.5 °F 77% 29.85 in 10.0 mi SW 11.5 mph - N/A   Scattered Clouds
2:36 PM 70.5 °F 62.8 °F 76% 29.85 in 10.0 mi West 12.7 mph 17.3 mph N/A   Scattered Clouds
2:55 PM 71.6 °F 64.2 °F 77% 29.86 in 10.0 mi WSW 12.7 mph - N/A   Scattered Clouds
3:15 PM 73.4 °F 64.8 °F 74% 29.86 in 10.0 mi West 8.1 mph - N/A   Scattered Clouds
3:35 PM 72.3 °F 62.6 °F 71% 29.86 in 10.0 mi West 8.1 mph - N/A   Scattered Clouds
3:55 PM 73.8 °F 63.5 °F 70% 29.86 in 10.0 mi WNW 5.8 mph - N/A   Clear
4:15 PM 71.6 °F 62.2 °F 72% 29.86 in 10.0 mi WSW 6.9 mph - N/A   Clear
4:35 PM 74.8 °F 65.3 °F 72% 29.86 in 10.0 mi WSW 6.9 mph - N/A   Clear
4:55 PM 72.9 °F 64.0 °F 74% 29.87 in 10.0 mi West 8.1 mph - N/A   Clear
5:15 PM 72.9 °F 64.4 °F 75% 29.87 in 10.0 mi WSW 8.1 mph - N/A   Clear
5:35 PM 72.9 °F 63.5 °F 72% 29.86 in 10.0 mi West 3.5 mph - N/A   Clear
5:55 PM 74.1 °F 63.7 °F 70% 29.86 in 10.0 mi West 5.8 mph - N/A   Clear
6:15 PM 72.5 °F 63.9 °F 74% 29.86 in 10.0 mi WSW 5.8 mph - N/A   Clear
6:35 PM 72.9 °F 61.9 °F 68% 29.86 in 10.0 mi WNW 4.6 mph - N/A   Clear
6:55 PM 72.3 °F 62.4 °F 71% 29.86 in 10.0 mi WSW 5.8 mph - N/A   Clear
7:15 PM 70.3 °F 61.0 °F 72% 29.86 in 10.0 mi Calm Calm - N/A   Clear
7:35 PM 70.3 °F 62.1 °F 75% 29.87 in 10.0 mi Calm Calm - N/A   Clear
7:55 PM 70.3 °F 62.8 °F 77% 29.88 in 10.0 mi Calm Calm - N/A   Clear
8:15 PM 70.3 °F 61.5 °F 74% 29.88 in 10.0 mi West 3.5 mph - N/A   Clear
8:35 PM 70.3 °F 62.8 °F 77% 29.89 in 10.0 mi WSW 3.5 mph - N/A   Clear
8:55 PM 68.4 °F 63.1 °F 83% 29.90 in 10.0 mi Calm Calm - N/A   Clear
9:15 PM 66.2 °F 61.3 °F 84% 29.90 in 10.0 mi Calm Calm - N/A   Clear
9:35 PM 63.3 °F 59.5 °F 87% 29.91 in 10.0 mi Calm Calm - N/A   Clear
9:55 PM 62.8 °F 59.5 °F 89% 29.92 in 5.0 mi Calm Calm - N/A   Clear
10:16 PM 62.8 °F 59.9 °F 90% 29.92 in 7.0 mi Calm Calm - N/A   Clear
10:35 PM 62.8 °F 59.9 °F 90% 29.93 in 7.0 mi Calm Calm - N/A   Clear
10:55 PM 62.8 °F 59.9 °F 90% 29.93 in 7.0 mi Calm Calm - N/A   Clear
11:15 PM 62.2 °F 59.2 °F 90% 29.94 in 7.0 mi West 3.5 mph - N/A   Clear
11:35 PM 62.4 °F 59.4 °F 90% 29.94 in 5.0 mi Calm Calm - N/A   Clear
11:55 PM 61.7 °F 58.6 °F 90% 29.93 in 4.0 mi Calm Calm - N/A   Clear